User: anonymous   Login
Location: Unspecified
(0.0000°N, 0.0000°E)
Time: 03:02:20
(UTC+00:00)
Language:

USA 158 - Orbit

View from above orbital plane
View from above orbital plane
View from above satellite
View from above satellite

Ground track
Ground track

The orbit data is extracted from the following two-line orbital elements,

1 26770U 01020A   18037.92313371 0.00000000  00000-0  00000-0 0    06
2 26770   6.6679  46.2317 0015710  42.6675 317.4665  0.98835485    07
Epoch (UTC): 06 February 2018 22:09:18
Eccentricity: 0.0015710
inclination: 6.6679°
perigee height: 36127 km
apogee height: 36260 km
right ascension of ascending node: 46.2317°
argument of perigee: 42.6675°
revolutions per day: 0.98835485
mean anomaly at epoch: 317.4665°
orbit number at epoch: 0

The dashed part of the orbit path shows where the satellite is in the earth's shadow,  

DLR